[[{"header":{"parameterUnit":"m.s-1","parameterCategory":1,"la1":30.2991,"la2":30.254,"lo1":-89.0895,"lo2":-89.0444,"dy":0.0017,"dx":0.0017,"nx":28,"ny":28,"refTime":"2024-07-09T09:00:00:Z","depth":0,"parameterNumber":2,"parameterNumberName":"U-component_of_WINDS"},"data":[0,0,0,0,0,0,0,0,0,0,0,0,0,0,0,0,0,0,0,0,0,0,0,0,0,0,0,0,0,0,0,0,0,0,0,0,0,0,0,0,0,0,0,0,0,0,0,0,0,0,0,0,0,0,0,0,0,0,2.6617,2.6618,0,2.6699,2.6699,2.67,2.666,2.6658,2.6656,2.6654,2.6738,2.6742,2.6746,0,0,0,0,0,0,0,0,0,0,0,0,0,2.6425,2.6429,2.6617,2.6618,2.6619,2.6698,2.67,2.6701,2.6661,2.6658,2.6656,2.6653,2.6737,2.6742,2.6747,0,0,0,0,0,0,0,0,0,0,0,0,0,2.6508,2.643,2.6617,2.6609,2.6609,2.6698,2.67,2.6701,2.6661,2.6658,2.6655,2.6652,2.6735,2.6741,2.6747,2.685,0,0,2.6767,2.6769,0,0,0,0,0,0,0,0,2.6503,2.6515,2.6609,2.6609,2.661,2.6666,2.6663,2.6751,2.6662,2.6641,2.6654,2.665,2.6717,2.6724,2.6747,2.6854,2.6857,2.6767,2.6771,2.6774,2.6776,0,0,0,0,0,0,0,2.6498,2.6511,2.6649,2.661,2.6611,2.66,2.6609,2.6679,2.6696,2.6643,2.664,2.665,2.6716,2.6741,2.6748,2.6859,2.6767,2.6773,2.6777,2.6779,2.7051,2.7055,0,0,0,0,0,0,2.6492,2.6507,2.6647,2.6652,2.6548,2.6606,2.6616,2.6651,2.6695,2.6699,2.6653,2.6648,2.6731,2.6741,2.6751,2.6872,2.6774,2.678,2.6783,2.7048,2.7052,2.7056,0,0,0,0,0,0,2.6488,2.6505,2.6643,2.6579,2.6595,2.6613,2.6653,2.6654,2.6679,2.6703,2.6705,2.6675,2.6729,2.6742,2.6825,2.6874,2.6783,2.6788,2.7044,2.7049,2.7054,2.7116,0,0,0,0,0,0,2.6483,2.6504,2.6543,2.658,2.6599,2.6716,2.6656,2.6658,2.669,2.6684,2.6724,2.6727,2.6728,2.6816,2.6831,2.6881,2.6793,2.704,2.7046,2.7052,2.7109,2.7122,2.7134,0,0,0,0,0,2.6476,2.6558,2.6546,2.6563,2.6649,2.6719,2.673,2.6729,2.6694,2.6733,2.6748,2.6726,2.6867,2.6825,2.6842,2.6895,2.7036,2.7044,2.7052,2.7104,2.712,2.7133,0,0,0,0,0,0,2.6528,2.6563,2.6549,2.6645,2.668,2.6712,2.6762,2.6746,2.6791,2.6784,2.6781,2.679,2.6876,2.6894,2.6846,2.6995,2.6946,2.6958,2.698,2.6995,2.7007,2.7,2.6798,0,0,0,0,0,2.655,2.6605,2.6633,2.6715,2.6732,2.6744,2.6775,2.6771,2.6807,2.6821,2.6842,2.6877,2.6929,2.6963,2.7013,2.7112,2.7119,2.7157,2.7169,2.7179,2.7188,2.724,2.7256,2.7081,2.7081,2.7081,0,0,2.6597,2.6623,2.6658,2.6726,2.6752,2.6807,2.6757,2.6819,2.686,2.683,2.6909,2.6926,2.6965,2.7056,2.7097,2.7073,2.7238,2.7189,2.7196,2.7201,2.725,2.7266,2.7281,2.7087,2.7086,2.7085,0,0,2.6711,2.6737,2.6807,2.6834,2.6874,2.6881,2.6898,2.6933,2.6943,2.7022,2.7,2.7049,2.7139,2.7167,2.7193,2.7316,2.7296,2.7332,2.7395,2.7445,2.7459,2.7471,2.7513,2.7528,2.7342,2.7342,2.7342,0,2.6765,2.6848,2.6846,2.6908,2.6938,2.6913,2.6983,2.701,2.7064,2.7084,2.7057,2.7168,2.7193,2.7289,2.7319,2.7341,2.7359,2.7327,2.7457,2.7469,2.7481,2.7521,2.7537,2.7346,2.7345,2.7345,2.7345,0,2.6911,2.6969,2.7021,2.7073,2.7109,2.7175,2.7181,2.7218,2.721,2.722,2.73,2.7329,2.7382,2.7405,2.7399,2.75,2.7484,2.7457,2.7408,2.7501,2.7539,2.7554,2.7351,2.735,2.7349,2.7348,0,0,2.706,2.7108,2.7127,2.7149,2.7191,2.7235,2.73,2.7352,2.7382,2.742,2.7473,2.7549,2.7524,2.7554,2.7551,2.7596,2.7688,2.7563,2.7564,2.7584,2.7799,2.7817,2.7835,2.7676,2.7679,2.7682,2.7795,0,2.7176,2.7289,2.7287,2.7392,2.7444,2.7421,2.7477,2.7508,2.7518,2.7564,2.7576,2.7629,2.7593,2.7611,2.7654,2.7668,2.7731,2.766,2.7724,2.7727,2.7714,2.7855,2.7875,2.7981,2.781,2.7812,2.7814,0,2.7326,2.7367,2.7477,2.7508,2.753,2.7581,2.7627,2.7671,2.7706,2.771,2.7742,2.7732,2.7796,2.7746,2.7834,2.7786,2.7812,2.7823,2.7827,2.7832,2.7775,2.7862,2.8015,2.803,2.7838,2.7836,2.7834,0,2.7421,2.7505,2.758,2.76,2.7639,2.7675,2.7693,2.7724,2.7755,2.7795,2.7815,2.7863,2.7889,2.7926,2.7928,2.7891,2.8016,2.7967,2.8021,2.8021,2.8047,2.8045,2.8205,2.8067,2.8067,2.8067,2.8066,0,2.7549,2.7617,2.7623,2.7669,2.7744,2.7741,2.7814,2.7829,2.7857,2.7905,2.7888,2.7934,2.7934,2.7981,2.7983,2.8055,2.8067,2.8072,2.8071,2.8072,2.8071,2.8088,2.808,2.8071,2.807,2.8069,2.8068,0,2.7668,2.7675,2.7756,2.7786,2.7795,2.7848,2.7873,2.7917,2.7926,2.7987,2.8001,2.8015,2.8068,2.8074,2.8137,2.8138,2.8224,2.8217,2.8212,2.821,2.8263,2.8257,2.8438,2.8461,2.831,2.8311,2.8313,0,2.7749,2.78,2.7835,2.7865,2.7885,2.7935,2.7966,2.7965,2.7997,2.8039,2.8077,2.8129,2.817,2.8256,2.8272,2.8319,2.8312,2.8372,2.8319,2.8317,2.831,2.8306,2.831,2.8381,2.8383,2.8384,2.8386,0,2.7891,2.7891,2.7936,2.7981,2.8018,2.8054,2.8088,2.8114,2.8117,2.8154,2.8208,2.824,2.8303,2.8354,2.84,2.8418,2.8402,2.8402,2.8417,2.8418,2.8412,2.8414,2.8238,2.8398,2.8397,2.8396,2.8395,2.8394,2.7992,2.8035,2.8065,2.8115,2.814,2.8172,2.8213,2.8227,2.8272,2.8322,2.8319,2.8378,2.8409,2.8469,2.8491,2.8537,2.8517,2.8538,2.8543,2.8548,2.8553,2.8406,2.8545,2.8545,2.8545,2.8544,2.8544,0,2.8131,2.8149,2.8195,2.8241,2.828,2.8261,2.8297,2.8331,2.8383,2.8413,2.8453,2.8514,2.8563,2.8582,2.8629,2.8662,2.8656,2.8675,2.8671,2.8675,2.8569,2.8551,2.8679,2.8679,2.8679,2.8679,2.8679,2.8679,2.8207,2.8279,2.8283,2.8366,2.8384,2.8441,2.8462,2.8491,2.8515,2.8583,2.8623,2.8635,2.866,2.8709,2.8753,2.8757,2.8774,2.8796,2.8797,2.8697,2.8683,2.867,2.8653,2.88,2.88,2.8899,2.89,2.89]},{"header":{"parameterUnit":"m.s-1","parameterCategory":1,"la1":30.2991,"la2":30.254,"lo1":-89.0895,"lo2":-89.0444,"dy":0.0017,"dx":0.0017,"nx":28,"ny":28,"refTime":"2024-07-09T09:00:00:Z","depth":0,"parameterNumber":3,"parameterNumberName":"V-component_of_WINDS"},"data":[0,0,0,0,0,0,0,0,0,0,0,0,0,0,0,0,0,0,0,0,0,0,0,0,0,0,0,0,0,0,0,0,0,0,0,0,0,0,0,0,0,0,0,0,0,0,0,0,0,0,0,0,0,0,0,0,0,0,-0.7161,-0.7161,0,-0.7168,-0.7168,-0.7168,-0.718,-0.718,-0.7181,-0.7181,-0.7187,-0.7187,-0.7187,0,0,0,0,0,0,0,0,0,0,0,0,0,-0.7156,-0.7156,-0.7161,-0.7161,-0.7161,-0.7168,-0.7168,-0.7168,-0.718,-0.718,-0.7181,-0.7181,-0.7187,-0.7187,-0.7187,0,0,0,0,0,0,0,0,0,0,0,0,0,-0.716,-0.7156,-0.7161,-0.7168,-0.7168,-0.7168,-0.7168,-0.7168,-0.718,-0.718,-0.7181,-0.7181,-0.7188,-0.7187,-0.7187,-0.7181,0,0,-0.7187,-0.7187,0,0,0,0,0,0,0,0,-0.716,-0.716,-0.7167,-0.7167,-0.7168,-0.7174,-0.7169,-0.7172,-0.718,-0.7176,-0.7181,-0.7181,-0.7183,-0.7183,-0.7184,-0.7181,-0.7181,-0.7187,-0.7187,-0.7187,-0.7187,0,0,0,0,0,0,0,-0.7159,-0.716,-0.7164,-0.7167,-0.7167,-0.717,-0.7171,-0.717,-0.7177,-0.7176,-0.7177,-0.7178,-0.7183,-0.7184,-0.7184,-0.7181,-0.7187,-0.7187,-0.7187,-0.7187,-0.7173,-0.7172,0,0,0,0,0,0,-0.7158,-0.716,-0.7163,-0.7164,-0.7165,-0.717,-0.7171,-0.7171,-0.7177,-0.7178,-0.7177,-0.7178,-0.7183,-0.7184,-0.7184,-0.7176,-0.7187,-0.7187,-0.7187,-0.7173,-0.7172,-0.7172,0,0,0,0,0,0,-0.7158,-0.7159,-0.7163,-0.7162,-0.7163,-0.717,-0.717,-0.7171,-0.7172,-0.7178,-0.7179,-0.7177,-0.7184,-0.7184,-0.7181,-0.7176,-0.7187,-0.7187,-0.7173,-0.7173,-0.7172,-0.716,0,0,0,0,0,0,-0.7158,-0.7158,-0.7156,-0.7162,-0.7163,-0.716,-0.717,-0.7171,-0.7172,-0.7173,-0.7178,-0.7179,-0.7184,-0.7181,-0.7181,-0.7176,-0.7187,-0.7174,-0.7173,-0.7172,-0.716,-0.7159,-0.7157,0,0,0,0,0,-0.7158,-0.7152,-0.7156,-0.7156,-0.716,-0.716,-0.7161,-0.7167,-0.7172,-0.7169,-0.7173,-0.7179,-0.7177,-0.7181,-0.7181,-0.7176,-0.7174,-0.7173,-0.7172,-0.7161,-0.7159,-0.7157,0,0,0,0,0,0,-0.7145,-0.7153,-0.7157,-0.7153,-0.7156,-0.7162,-0.7159,-0.7164,-0.7165,-0.7166,-0.7174,-0.7175,-0.7171,-0.7173,-0.7177,-0.7169,-0.7176,-0.7176,-0.7168,-0.7166,-0.7164,-0.7163,-0.7187,0,0,0,0,0,-0.7142,-0.7142,-0.7149,-0.7145,-0.7146,-0.7152,-0.7152,-0.7157,-0.716,-0.7161,-0.7165,-0.7167,-0.7167,-0.7166,-0.7167,-0.7161,-0.7162,-0.7158,-0.7156,-0.7155,-0.7154,-0.715,-0.7148,-0.7169,-0.7169,-0.7169,0,0,-0.7136,-0.714,-0.7139,-0.7142,-0.7145,-0.7144,-0.7153,-0.7152,-0.7151,-0.7161,-0.7158,-0.7161,-0.7164,-0.7159,-0.7157,-0.7161,-0.7148,-0.7154,-0.7152,-0.7152,-0.7149,-0.7147,-0.7145,-0.7169,-0.7169,-0.7169,0,0,-0.7123,-0.7127,-0.7124,-0.7126,-0.713,-0.7134,-0.7133,-0.7138,-0.7141,-0.7138,-0.7145,-0.7144,-0.7144,-0.7146,-0.7147,-0.7134,-0.7139,-0.7134,-0.7125,-0.7122,-0.712,-0.7119,-0.7114,-0.7112,-0.7133,-0.7133,-0.7133,0,-0.7115,-0.7114,-0.7121,-0.7119,-0.712,-0.7129,-0.7126,-0.7127,-0.7131,-0.7131,-0.7135,-0.7135,-0.7138,-0.7133,-0.713,-0.7131,-0.713,-0.7134,-0.712,-0.7118,-0.7117,-0.7112,-0.7111,-0.7133,-0.7133,-0.7133,-0.7133,0,-0.7103,-0.7102,-0.7099,-0.7102,-0.7103,-0.71,-0.7106,-0.7106,-0.7111,-0.7114,-0.7111,-0.7115,-0.7116,-0.7115,-0.7119,-0.7111,-0.7113,-0.7119,-0.7126,-0.7114,-0.711,-0.7108,-0.7132,-0.7132,-0.7132,-0.7132,0,0,-0.7083,-0.709,-0.7089,-0.709,-0.7095,-0.7094,-0.7091,-0.7093,-0.7092,-0.7094,-0.7091,-0.7091,-0.7096,-0.7097,-0.7101,-0.7098,-0.7087,-0.7104,-0.7104,-0.71,-0.7078,-0.7073,-0.7071,-0.7091,-0.7091,-0.7091,-0.7077,0,-0.7071,-0.7067,-0.7073,-0.7068,-0.7067,-0.7076,-0.7073,-0.7076,-0.7079,-0.7078,-0.7082,-0.7081,-0.7088,-0.7088,-0.7086,-0.7089,-0.7083,-0.709,-0.7088,-0.7088,-0.7087,-0.7069,-0.7064,-0.7052,-0.7076,-0.7075,-0.7075,0,-0.7056,-0.7058,-0.7052,-0.7057,-0.7057,-0.7055,-0.7056,-0.7055,-0.7058,-0.7061,-0.7061,-0.7067,-0.7064,-0.7071,-0.7068,-0.7072,-0.7072,-0.7073,-0.7073,-0.7073,-0.7081,-0.7067,-0.7048,-0.7046,-0.7073,-0.7073,-0.7073,0,-0.7042,-0.7042,-0.7039,-0.704,-0.7045,-0.7043,-0.7046,-0.7049,-0.7049,-0.705,-0.7049,-0.705,-0.705,-0.705,-0.7055,-0.706,-0.705,-0.7058,-0.7052,-0.7052,-0.7049,-0.7049,-0.7028,-0.705,-0.705,-0.705,-0.705,0,-0.7027,-0.7024,-0.7032,-0.703,-0.7026,-0.7033,-0.7029,-0.7031,-0.7034,-0.7032,-0.7039,-0.7038,-0.7045,-0.7044,-0.7048,-0.7043,-0.7043,-0.7045,-0.7046,-0.7044,-0.7044,-0.7043,-0.7044,-0.7049,-0.7049,-0.705,-0.705,0,-0.701,-0.7016,-0.7013,-0.7018,-0.7019,-0.7016,-0.702,-0.7018,-0.7022,-0.7019,-0.7019,-0.7025,-0.7024,-0.7029,-0.7029,-0.7032,-0.7025,-0.7028,-0.7024,-0.7024,-0.7017,-0.7018,-0.6995,-0.6992,-0.7016,-0.7016,-0.7016,0,-0.7,-0.6998,-0.7002,-0.7002,-0.7004,-0.7003,-0.7003,-0.7009,-0.7009,-0.7012,-0.7009,-0.7009,-0.7008,-0.7006,-0.701,-0.701,-0.7012,-0.7004,-0.7012,-0.701,-0.7011,-0.7011,-0.701,-0.7002,-0.7002,-0.7002,-0.7002,0,-0.6982,-0.6985,-0.6985,-0.6986,-0.6986,-0.6987,-0.6988,-0.6987,-0.6994,-0.6993,-0.6992,-0.6992,-0.6992,-0.6991,-0.6991,-0.6993,-0.6998,-0.6999,-0.6998,-0.6995,-0.6993,-0.6993,-0.7019,-0.7,-0.7,-0.7,-0.7,-0.7,-0.6968,-0.6966,-0.6969,-0.6968,-0.697,-0.6971,-0.6969,-0.6973,-0.6972,-0.6972,-0.6976,-0.6974,-0.6976,-0.6977,-0.6978,-0.6976,-0.698,-0.6978,-0.6977,-0.6976,-0.6975,-0.6994,-0.6977,-0.6977,-0.6977,-0.6977,-0.6977,0,-0.695,-0.6952,-0.6952,-0.6953,-0.6953,-0.6958,-0.696,-0.6959,-0.6957,-0.6959,-0.6958,-0.6957,-0.6956,-0.6959,-0.6959,-0.6956,-0.6959,-0.6956,-0.6956,-0.6956,-0.6972,-0.6973,-0.6954,-0.6954,-0.6954,-0.6954,-0.6954,-0.6954,-0.694,-0.6937,-0.694,-0.6936,-0.6939,-0.6937,-0.6937,-0.6938,-0.6939,-0.6937,-0.6936,-0.6939,-0.6941,-0.6941,-0.694,-0.6941,-0.694,-0.6936,-0.6938,-0.6953,-0.6955,-0.6957,-0.6958,-0.6936,-0.6936,-0.6922,-0.6922,-0.6922]}]]